Weather in Jutiapa

Guatemala     14°17′25″N   89°53′44″W
temp.,
°C
wind,
m/s
gust,
m/s
humid.,
%
clouds,
%
prec.,
mm/h
press.,
hPa
HPBL,
m
1 december, wed
wed100:00+15nne36850 0.0 1017120
03:00+14nne35875 0.0 1016117
06:00+14nne34884 0.0 101892
09:00+23ne48525 0.0 1018926
12:00+27ne56380 0.0 10151343
15:00+26ne56405 0.0 10121474
18:00+19nne376923 0.0 1016220
21:00+16nne37891 0.0 1018136
2 december, thu
thu200:00+16nne379411 0.0 1017163
03:00+15nne3794100 0.0 1016147
06:00+15nne379433 0.0 1017146
09:00+23ne58555 0.0 1017881
12:00+27ne57355 0.0 10141575
15:00+26ne5736100 0.0 10121591
18:00+19ne3864100 0.0 1015272
21:00+17nne3775100 0.0 1017197
3 december, fri
fri300:00+16nne3781100 0.0 1016186
03:00+15nne368074 0.0 1015138
06:00+15nne368097 0.0 1016128
09:00+23ne495293 0.0 1016877
12:00+26ne5844100 0.0 10131342
15:00+25ne5749100 0.0 10111351
18:00+19ne3773100 0.0 1014249
21:00+16nne3787100 0.0 1016149
4 december, sat
sat400:00+15nne349126 0.0 101681
03:00+15nne3488100 0.0 101473
06:00+15nne3583100 0.0 101594
09:00+23ne4743100 0.0 1015606
12:00+27ene4631100 0.0 10131296
15:00+26ne564055 0.0 10111267
18:00+20ne3865100 0.0 1014413
21:00+18nne3777100 0.0 1016171
5 december, sun
sun500:00+17nne248593 0.0 101573
03:00+16nne238659 0.0 101470
06:00+16nne338648 0.0 101567
09:00+24ene345210 0.0 1016672
12:00+28ese334312 0.0 10131541
15:00+28ese23416 0.0 10111989
18:00+19wsw118891 0.0 101414
21:00+18n22875 0.0 101719